Weather History for Trieste, Italy

Change the Weather History Date:

Friday, July 5, 2013

  Actual Average Record
Temperature  
Mean Temperature 79 °F -  
Max Temperature 88 °F 83 °F 88 °F (2012)
Min Temperature 70 °F 68 °F 57 °F (2007)
Cooling Degree Days 14    
Growing Degree Days 29 (Base 50)    
Moisture  
Dew Point 64 °F    
Average Humidity 58    
Maximum Humidity 78    
Minimum Humidity 36    
Precipitation  
Precipitation 0.08 in 0.10 in - ()
Sea Level Pressure  
Sea Level Pressure 30.10 in    
Wind  
Wind Speed 5 mph ()    
Max Wind Speed 12 mph    
Max Gust Speed 24 mph    
Visibility 7.6 miles    
Events Rain    
Averages and records for this station are not official NWS values.
T = Trace of Precipitation, MM = Missing Value Source: Averaged Metar Reports

Daily Weather History Graph

Daily Weather History Graph

Search for Another Location

Airport:

Trip Planner

Search our weather history database for the weather conditions in past years. The results will help you decide how hot, cold, wet, or windy it might be!

Date:

Astronomy

Jul. 05, 2013 Rise Set
Actual Time 5:21 AM CEST 8:56 PM CEST
Civil Twilight 4:44 AM CEST 9:34 PM CEST
Nautical Twilight 3:54 AM CEST 10:24 PM CEST
Astronomical Twilight 2:47 AM CEST 11:30 PM CEST
Moon 3:12 AM CEST (7/5) 6:34 PM CEST (7/5)
Length of Visible Light 16h 50m
Length of Day
15h 34m
Waning Crescent, 7% of the Moon is Illuminated
Jul 5
Waning Crescent
Jul 8
New
Jul 16
First Quarter
Jul 22
Full
Jul 29
Last Quarter

Hourly Weather History & Observations

Time (CEST) Temp. Heat Index Dew Point Humidity Pressure Visibility Wind Dir Wind Speed Gust Speed Precip Events Conditions
12:55 AM 77.0 °F - 55.4 °F 47% 30.06 in - SSE 5.8 mph - N/A   Clear
1:55 AM 77.0 °F - 55.4 °F 47% 30.06 in - East 9.2 mph - N/A   Clear
2:00 AM 78 °F - 56 °F 36% 30.08 in 12 mi East 9.2 mph - -  
2:55 AM 77.0 °F - 59.0 °F 54% 30.06 in - East 8.1 mph 20.7 mph N/A   Clear
3:55 AM 73.4 °F - 59.0 °F 61% 30.06 in - East 4.6 mph - N/A   Clear
4:55 AM 71.6 °F - 60.8 °F 69% 30.09 in - East 4.6 mph - N/A   Clear
5:55 AM 71.6 °F - 59.0 °F 64% 30.09 in - ENE 3.5 mph - N/A   Clear
6:55 AM 73.4 °F - 60.8 °F 65% 30.09 in - East 6.9 mph - N/A   Clear
7:55 AM 78.8 °F - 62.6 °F 57% 30.12 in - East 4.6 mph - N/A   Clear
8:00 AM 78 °F - 63 °F 51% 30.13 in 12 mi East 4.6 mph - -  
8:55 AM 80.6 °F 81.8 °F 62.6 °F 54% 30.12 in - East 6.9 mph - N/A   Clear
9:55 AM 84.2 °F 84.4 °F 60.8 °F 45% 30.12 in - East 8.1 mph - N/A   Clear
10:55 AM 84.2 °F 85.6 °F 64.4 °F 51% 30.12 in - North 3.5 mph - N/A   Clear
11:55 AM 86.0 °F 90.4 °F 69.8 °F 58% 30.12 in 6.2 mi West 9.2 mph - N/A   Partly Cloudy
12:55 PM 84.2 °F 88.4 °F 69.8 °F 62% 30.12 in 6.2 mi West 11.5 mph - N/A   Mostly Cloudy
1:55 PM 86.0 °F 89.4 °F 68.0 °F 55% 30.12 in 6.2 mi NNW 4.6 mph - N/A   Scattered Clouds
2:00 PM 86 °F - 68 °F 45% 30.13 in 12 mi NNW 4.6 mph - -   Partly Cloudy
2:55 PM 86.0 °F 90.4 °F 69.8 °F 58% 30.09 in 6.2 mi WNW 5.8 mph - N/A Rain Light Rain
3:55 PM 80.6 °F 84.6 °F 71.6 °F 74% 30.09 in 6.2 mi ESE 8.1 mph 24.2 mph N/A Rain Light Rain
4:55 PM 80.6 °F 82.7 °F 66.2 °F 61% 30.09 in 6.2 mi NNW 8.1 mph - N/A   Scattered Clouds
5:55 PM 78.8 °F - 66.2 °F 65% 30.09 in 6.2 mi NE 5.8 mph - N/A   Light Drizzle
6:55 PM 80.6 °F 83.2 °F 68.0 °F 65% 30.09 in 6.2 mi Variable 1.2 mph - N/A   Scattered Clouds
7:55 PM 78.8 °F - 69.8 °F 74% 30.12 in 6.2 mi ESE 1.2 mph - N/A   Scattered Clouds
8:00 PM 79 °F - 69 °F 64% 30.12 in 12 mi ESE 1.2 mph - -   Partly Cloudy
8:55 PM 77.0 °F - 69.8 °F 78% 30.12 in 6.2 mi Calm Calm - N/A   Scattered Clouds
9:55 PM 78.8 °F - 60.8 °F 54% 30.12 in 6.2 mi East 8.1 mph - N/A   Scattered Clouds
10:55 PM 77.0 °F - 60.8 °F 57% 30.15 in 6.2 mi ESE 5.8 mph - N/A   Partly Cloudy
11:55 PM 75.2 °F - 59.0 °F 57% 30.15 in 6.2 mi ESE 4.6 mph - N/A   Partly Cloudy